Voltar ao catálogo

OPS 4682 DEB

AtivoPO
NORAD 51488·DEBRIS·🇺🇸 United States

Lançado Apr 3, 1965 de Vandenberg Space Force Base

Loading…

Próximas Passagens (próximas 24 horas)

TLE

AtualizadoSource: Space-Track

Época: Sep 13, 2026, 23:56 UTC

1 51488U 65027FY  26256.99771146 -.00000400  00000-0 -13248-2 0  9997
2 51488  90.2451 353.2070 0019494  24.7090 335.4962 13.01472842554905

Acompanhe OPS 4682 DEB em tempo real com AllMySat

Download on the App Store